Regional Weather Roundup
Issued by NWS

Home | Current Version | Previous Version | Text Only | Print | Product List | Glossary Off
Versions: 1 2 3 4 5 6 7 8 9 10 11 12 13 14 15 16 17 18 19 20 21 22 23 24 25 26 27 28 29 30 31 32 33 34 35 36 37 38 39 40 41 42 43 44 45 46 47 48 49 50

000
ASUS43 KMPX 210901
RWRMN
WEATHER ROUNDUP FOR MINNESOTA
NATIONAL WEATHER SERVICE TWIN CITIES/CHANHASSEN MN
300 AM CST TUE FEB 21 2017


NOTE: "FAIR" INDICATES FEW OR NO CLOUDS BELOW 12,000 FEET WITH NO
SIGNIFICANT WEATHER AND/OR OBSTRUCTIONS TO VISIBILITY. N/A MEANS
CURRENT SKY AND/OR WEATHER CONDITIONS ARE NOT AVAILABLE.

MNZ060>063-068>070-211000-
   Twin Cities Metro

CITY           SKY/WX    TMP DP  RH WIND       PRES   REMARKS
TWIN CITIES    CLEAR     37  34  89 S5        29.88R FOG
ST PAUL        CLEAR     38  37  97 SW3       29.89R
CRYSTAL        PTCLDY   N/A N/A N/A S5        29.85F
BLAINE         PTCLDY    37  37 100 S3        29.85F
LAKEVILLE      CLEAR     36  36 100 W5        29.88F
EDEN PRAIRIE   CLEAR     34  33  96 SW7       29.87S FOG     WCI  28
SOUTH ST PAUL  CLEAR     37  37  97 CALM      29.89S
LAKE ELMO      MOCLDY    37  36  93 W3        29.88F
$$
MNZ001>005-007-008-013>017-022>024-027-028-211000-
   Northwest Minnesota

CITY           SKY/WX    TMP DP  RH WIND       PRES   REMARKS
BEMIDJI        CLOUDY    33  32  99 SW5       29.75S FOG     WCI  28
HALLOCK        FOG       34  32  93 CALM      29.73F VSB 1
ROSEAU         HAZE      32  27  80 W6        29.73R VSB 1   WCI  26
WARROAD        CLOUDY    32  28  86 SW7       29.72S FOG     WCI  26
THIEF RVR FALL FOG       30  29  96 SW5       29.75S VSB 1   WCI  25
CROOKSTON      CLOUDY    32  30  93 S5        29.76S FOG     WCI  27
FOSSTON        CLEAR     30  28  93 S7        29.76R FOG     WCI  23
DETROIT LAKES    N/A     32  32 100 S5        29.79F FOG     WCI  27
MOORHEAD       CLEAR     30  30 100 SE5       29.79S FOG     WCI  25
PARK RAPIDS    FOG       32  30  92 SW5       29.78R VSB 1/4 WCI  27
MAHNOMEN       FAIR      32  31  98 S12       29.76S FOG     WCI  23
$$
MNZ006-009>011-018-025>026-211000-
   North Central Minnesota

CITY           SKY/WX    TMP DP  RH WIND       PRES   REMARKS
BAUDETTE       CLOUDY    33  31  92 W8        29.71R WCI  26
FLAG ISLAND    CLEAR     32  30  93 W8        29.69S WCI  25
INTL FALLS     CLOUDY    34  31  88 W6        29.70R WCI  29
WASKISH        CLOUDY    34  32  93 SW9       29.73S FOG     WCI  26
BIG FORK       CLOUDY    34  32  93 SW6       29.74R WCI  29
LONGVILLE      CLOUDY    34  34 100 SW5       29.77S FOG     WCI  30
GRAND RAPIDS   CLOUDY    34  32  92 SW6       29.78F WCI  29
CRANE LAKE     CLOUDY    34  32  93 W3        29.72S
ORR            CLOUDY    34  30  86 W8        29.70R WCI  27
COOK           CLOUDY    34  32  93 W9        29.73S WCI  26
WALKER         FAIR      31  31  98 SW8       29.76S FOG     WCI  24
$$
MNZ012-019>021-037-211000-
   Northeast Minnesota

CITY           SKY/WX    TMP DP  RH WIND       PRES   REMARKS
DULUTH         CLOUDY    36  34  92 W14       29.75R
ELY            CLOUDY    34  32  93 W20G29    29.70S WCI  22
HIBBING        CLOUDY    33  33 100 VRB7      29.74S WCI  27
EVELETH        CLOUDY    35  32  90 W9        29.76R WCI  28
DULUTH HARBOR  PTCLDY    37  36  93 W14G24    29.79R
TWO HARBORS    CLOUDY    39  34  81 W12G18    29.70R
SILVER BAY     MOCLDY    37  36  93 W7G23     29.67R
GRAND MARAIS     N/A     40  38  93 W7        29.62R
G MARAIS ARPRT CLOUDY    36  34  93 W13G20    29.59R
$$
MNZ029>031-032-039>041-046>048-054>057-064-211000-
   West Central Minnesota

CITY           SKY/WX    TMP DP  RH WIND       PRES   REMARKS
FERGUS FALLS   CLEAR     32  32 100 SE6       29.83F FOG     WCI  26
WHEATON        CLEAR     36  30  80 S7        29.83R
MORRIS         CLEAR     30  30 100 S5        29.81S FOG     WCI  25
ALEXANDRIA     CLEAR     32  31  96 SW5       29.82S FOG     WCI  27
ELBOW LAKE     FAIR      32  32 100 E7        29.81S WCI  26
WADENA         FOG       30  30 100 CALM      29.80R VSB 1/4
GLENWOOD       CLEAR     30  30 100 S5        29.83F FOG     WCI  25
APPLETON       CLEAR     34  32  93 S5        29.83F WCI  30
BENSON         CLEAR     34  30  86 S3        29.84F FOG
ORTONVILLE     CLEAR     34  30  86 CALM      29.83R
WILLMAR        FOG       32  32 100 CALM      29.85F VSB 1/2
$$
MNZ033>034-036-042>043-049>051-058-059-211000-
   Central Minnesota

CITY           SKY/WX    TMP DP  RH WIND       PRES   REMARKS
ST CLOUD       CLEAR     32  32 100 S3        29.84F FOG
SAUK CENTRE    FAIR      32  32 100 CALM      29.83S FOG
PAYNESVILLE    CLEAR     31  31 100 CALM      29.84F FOG
AITKIN         CLOUDY    36  32  87 W5        29.78F
PINE RIVER     CLOUDY    34  34 100 CALM      29.83R FOG
BRAINERD       CLOUDY    34  33  96 SW8       29.80F FOG     WCI  27
STAPLES        FOG       32  32 100 CALM      29.81R VSB 1/4
LONG PRAIRIE   FOG       30  30 100 S3        29.83R VSB 1/4
LITTLE FALLS   CLOUDY    34  32  93 CALM      29.83F FOG
LITCHFIELD       N/A     36  34  93 CALM      29.86S FOG
BUFFALO        PTCLDY    33  32  96 CALM      29.86F FOG
MAPLE LAKE     PTCLDY    34  34  99 CALM      29.86F FOG
HUTCHINSON     CLOUDY    34  34 100 SW3       29.88S FOG
$$
MNZ037-044-045-052-053-211000-
   East Central Minnesota

CITY           SKY/WX    TMP DP  RH WIND       PRES   REMARKS
PRINCETON      PTCLDY    36  34  93 CALM      29.85S FOG
MORA           CLEAR     34  32  93 CALM      29.84F
CAMBRIDGE      CLEAR     37  36  93 CALM      29.82F
RUSH CITY      MOCLDY    36  32  87 SW3       29.85F
MOOSE LAKE     CLOUDY    36  32  87 W6        29.79S
HINCKLEY       CLOUDY    36  34  93 W7        29.83S
CLOQUET        CLOUDY    36  34  93 W8        29.77R
MCGREGOR       CLOUDY    34  32  93 SW5       29.80S WCI  30
$$
MNZ071>073-080-081-089-090-097-098-211000-
   Southwest Minnesota

CITY           SKY/WX    TMP DP  RH WIND       PRES   REMARKS
MONTEVIDEO     CLEAR     34  34 100 SW6       29.85F WCI  29
GRANITE FALLS  CLEAR     34  32  92 S6        29.86F WCI  29
CANBY          PTCLDY    40  33  74 SW9       29.85F
MARSHALL       CLEAR     36  30  79 SW8       29.85F
REDWOOD FALLS  CLEAR     34  31  88 S7        29.86F WCI  28
OLIVIA         CLEAR     34  32  93 S5        29.85F FOG     WCI  30
PIPESTONE      CLEAR     36 N/A N/A S3        29.87S FOG
WINDOM         CLEAR     34  34 100 CALM      29.89F FOG
WORTHINGTON    CLEAR     36  35  96 S7        29.89F
JACKSON        PTCLDY    32  32 100 S7        29.90F WCI  26
TRACY          CLEAR     38  33  82 SW10      29.86F
SLAYTON        CLEAR     35  33  93 CALM      29.87F
$$
MNZ065>067-074>077-082>085-091>093-211000-
   South Central Minnesota

CITY           SKY/WX    TMP DP  RH WIND       PRES   REMARKS
MANKATO          N/A     37  36  96 S6        29.90S FOG
NEW ULM        CLEAR     34  34 100 SW3       29.88F FOG
ST JAMES       CLEAR     34  34 100 S5        29.90F WCI  30
FAIRMONT       CLEAR     34  33  96 SW5       29.91F WCI  30
GLENCOE        PTCLDY    35  35 100 S3        29.86F FOG
FARIBAULT      MOCLDY    34  34 100 CALM      29.90S FOG
OWATONNA       FOG       34  32  93 CALM      29.91R VSB 1/2
WASECA         FOG       32  32 100 SW3       29.92S VSB 1/4
ALBERT LEA     CLEAR     37  37 100 CALM      29.91R FOG
$$
MNZ078>079-086>088-094>096-211000-
   Southeast Minnesota

CITY           SKY/WX    TMP DP  RH WIND       PRES   REMARKS
ROCHESTER      CLEAR     37  36  96 NW9       29.90R
RED WING       CLOUDY    41  37  87 NW6       29.89R
STANTON        CLEAR     35  33  92 S3        29.89S FOG
WINONA         MOCLDY    41  37  87 NW8       29.91R
AUSTIN         CLEAR     37  36  93 CALM      29.92R FOG
PRESTON        CLEAR     37  34  90 NW12      29.90R
$$
ABBREVIATIONS USED IN REMARKS
   TC - TEMPERATURES IN CELSIUS
  WCI - WIND CHILL INDEX
   HX - HEAT INDEX
  VSB - VISIBILITY
$$




USA.gov is the U.S. government's official web portal to all federal, state and local government web resources and services.